User: anonymous   Login
Location: Whispering Pines Observatory
(39.4020°N, 104.7430°W)
Time: 00:12:48
(UTC-06:00)
Language:

MOS 1 Rocket - Orbit

View from above orbital plane
View from above orbital plane
View from above satellite
View from above satellite

Ground track
Ground track

The orbit data is extracted from the following two-line orbital elements,

1 17528U 87018B   15183.53530384  .00000179  00000-0  48679-4 0  9991
2 17528 097.4149 213.8868 0153474 022.0838 132.9210 14.50453304496121
Epoch (UTC): 02 July 2015 12:50:50
Eccentricity: 0.0153474
inclination: 97.4149°
perigee height: 615 km
apogee height: 833 km
right ascension of ascending node: 213.8868°
argument of perigee: 22.0838°
revolutions per day: 14.50453304
mean anomaly at epoch: 132.9210°
orbit number at epoch: 49612

The dashed part of the orbit path shows where the satellite is in the earth's shadow,  

DLR